owner,sensor,date,latitude,longitude,vertical_datum,mass_concentration_of_oxygen_in_sea_water,qcFlag 
DISL,ioos:station:DISL:PPTA:1,2012-08-01T00:00:00Z,30.2791,-87.5561,1.173,5.8,1111122 
DISL,ioos:station:DISL:PPTA:1,2012-08-01T00:30:00Z,30.2791,-87.5561,1.143,5.59,1111122 
DISL,ioos:station:DISL:PPTA:1,2012-08-01T01:00:00Z,30.2791,-87.5561,1.152,6.4,1111122 
DISL,ioos:station:DISL:PPTA:1,2012-08-01T01:30:00Z,30.2791,-87.5561,1.124,6.26,1111122 
DISL,ioos:station:DISL:PPTA:1,2012-08-01T02:00:00Z,30.2791,-87.5561,1.13,6.16,1111122 
DISL,ioos:station:DISL:PPTA:1,2012-08-01T02:30:00Z,30.2791,-87.5561,1.176,5.99,1111122 
DISL,ioos:station:DISL:PPTA:1,2012-08-01T03:00:00Z,30.2791,-87.5561,1.178,5.26,1111122 
DISL,ioos:station:DISL:PPTA:1,2012-08-01T03:30:00Z,30.2791,-87.5561,1.19,6.19,1111122 
DISL,ioos:station:DISL:PPTA:1,2012-08-01T04:00:00Z,30.2791,-87.5561,1.191,5.6,1111122 
DISL,ioos:station:DISL:PPTA:1,2012-08-01T04:30:00Z,30.2791,-87.5561,1.178,5.29,1111122 
DISL,ioos:station:DISL:PPTA:1,2012-08-01T05:00:00Z,30.2791,-87.5561,1.155,5.06,1111122 
DISL,ioos:station:DISL:PPTA:1,2012-08-01T05:30:00Z,30.2791,-87.5561,1.174,4.95,1111122 
DISL,ioos:station:DISL:PPTA:1,2012-08-01T06:00:00Z,30.2791,-87.5561,1.174,5.82,1111122 
DISL,ioos:station:DISL:PPTA:1,2012-08-01T06:30:00Z,30.2791,-87.5561,1.181,5.26,1111122 
DISL,ioos:station:DISL:PPTA:1,2012-08-01T07:00:00Z,30.2791,-87.5561,1.204,4.62,1111122 
DISL,ioos:station:DISL:PPTA:1,2012-08-01T07:30:00Z,30.2791,-87.5561,1.222,5.17,1111122 
DISL,ioos:station:DISL:PPTA:1,2012-08-01T08:00:00Z,30.2791,-87.5561,1.235,5.22,1111122 
DISL,ioos:station:DISL:PPTA:1,2012-08-01T08:30:00Z,30.2791,-87.5561,1.241,4.65,1111122 
DISL,ioos:station:DISL:PPTA:1,2012-08-01T09:00:00Z,30.2791,-87.5561,1.263,4.74,1111122 
DISL,ioos:station:DISL:PPTA:1,2012-08-01T09:30:00Z,30.2791,-87.5561,1.298,4.85,1111122 
DISL,ioos:station:DISL:PPTA:1,2012-08-01T10:00:00Z,30.2791,-87.5561,1.293,4.8,1111122 
DISL,ioos:station:DISL:PPTA:1,2012-08-01T10:30:00Z,30.2791,-87.5561,1.348,4.71,1111122 
DISL,ioos:station:DISL:PPTA:1,2012-08-01T11:00:00Z,30.2791,-87.5561,1.337,4.46,1111122 
DISL,ioos:station:DISL:PPTA:1,2012-08-01T11:30:00Z,30.2791,-87.5561,1.379,4.85,1111122 
DISL,ioos:station:DISL:PPTA:1,2012-08-01T12:00:00Z,30.2791,-87.5561,1.413,4.78,1111122 
DISL,ioos:station:DISL:PPTA:1,2012-08-01T12:30:00Z,30.2791,-87.5561,1.411,4.79,1111122 
DISL,ioos:station:DISL:PPTA:1,2012-08-01T13:00:00Z,30.2791,-87.5561,1.426,4.89,1111122 
DISL,ioos:station:DISL:PPTA:1,2012-08-01T13:30:00Z,30.2791,-87.5561,1.466,4.8,1111122 
DISL,ioos:station:DISL:PPTA:1,2012-08-01T14:00:00Z,30.2791,-87.5561,1.458,4.77,1111122 
DISL,ioos:station:DISL:PPTA:1,2012-08-01T14:30:00Z,30.2791,-87.5561,1.458,4.98,1111122 
DISL,ioos:station:DISL:PPTA:1,2012-08-01T15:00:00Z,30.2791,-87.5561,1.44,5.12,1111122 
DISL,ioos:station:DISL:PPTA:1,2012-08-01T15:30:00Z,30.2791,-87.5561,1.46,5.24,1111122 
DISL,ioos:station:DISL:PPTA:1,2012-08-01T16:00:00Z,30.2791,-87.5561,1.477,5.4,1111122 
DISL,ioos:station:DISL:PPTA:1,2012-08-01T16:30:00Z,30.2791,-87.5561,1.449,5.38,1111122 
DISL,ioos:station:DISL:PPTA:1,2012-08-01T17:00:00Z,30.2791,-87.5561,1.447,5.34,1111122 
DISL,ioos:station:DISL:PPTA:1,2012-08-01T17:30:00Z,30.2791,-87.5561,1.404,5.33,1111122 
DISL,ioos:station:DISL:PPTA:1,2012-08-01T18:00:00Z,30.2791,-87.5561,1.375,5.42,1111122 
DISL,ioos:station:DISL:PPTA:1,2012-08-01T18:30:00Z,30.2791,-87.5561,1.365,5.46,1111122 
DISL,ioos:station:DISL:PPTA:1,2012-08-01T19:00:00Z,30.2791,-87.5561,1.313,6.14,1111122 
DISL,ioos:station:DISL:PPTA:1,2012-08-01T19:30:00Z,30.2791,-87.5561,1.306,6.8,1111122 
DISL,ioos:station:DISL:PPTA:1,2012-08-01T20:00:00Z,30.2791,-87.5561,1.288,6.74,1111122 
DISL,ioos:station:DISL:PPTA:1,2012-08-01T20:30:00Z,30.2791,-87.5561,1.28,6.63,1111122 
DISL,ioos:station:DISL:PPTA:1,2012-08-01T21:00:00Z,30.2791,-87.5561,1.26,6.93,1111122 
DISL,ioos:station:DISL:PPTA:1,2012-08-01T21:30:00Z,30.2791,-87.5561,1.248,6.83,1111122 
DISL,ioos:station:DISL:PPTA:1,2012-08-01T22:00:00Z,30.2791,-87.5561,1.223,6.98,1111122 
DISL,ioos:station:DISL:PPTA:1,2012-08-01T22:30:00Z,30.2791,-87.5561,1.219,7.16,1111122 
DISL,ioos:station:DISL:PPTA:1,2012-08-01T23:00:00Z,30.2791,-87.5561,1.209,7.14,1111122 
DISL,ioos:station:DISL:PPTA:1,2012-08-01T23:30:00Z,30.2791,-87.5561,1.201,7.22,1111122 
DISL,ioos:station:DISL:PPTA:1,2012-08-02T00:00:00Z,30.2791,-87.5561,1.186,7.13,1111122 
DISL,ioos:station:DISL:PPTA:1,2012-08-02T00:30:00Z,30.2791,-87.5561,1.179,7.07,1111122 
DISL,ioos:station:DISL:PPTA:1,2012-08-02T01:00:00Z,30.2791,-87.5561,1.163,7.0,1111122 
DISL,ioos:station:DISL:PPTA:1,2012-08-02T01:30:00Z,30.2791,-87.5561,1.162,6.68,1111122 
DISL,ioos:station:DISL:PPTA:1,2012-08-02T02:00:00Z,30.2791,-87.5561,1.166,6.86,1111122 
DISL,ioos:station:DISL:PPTA:1,2012-08-02T02:30:00Z,30.2791,-87.5561,1.159,6.67,1111122 
DISL,ioos:station:DISL:PPTA:1,2012-08-02T03:00:00Z,30.2791,-87.5561,1.169,6.34,1111122 
DISL,ioos:station:DISL:PPTA:1,2012-08-02T03:30:00Z,30.2791,-87.5561,1.172,6.4,1111122 
DISL,ioos:station:DISL:PPTA:1,2012-08-02T04:00:00Z,30.2791,-87.5561,1.178,5.98,1111122 
DISL,ioos:station:DISL:PPTA:1,2012-08-02T04:30:00Z,30.2791,-87.5561,1.186,5.77,1111122 
DISL,ioos:station:DISL:PPTA:1,2012-08-02T05:00:00Z,30.2791,-87.5561,1.189,5.9,1111122 
DISL,ioos:station:DISL:PPTA:1,2012-08-02T05:30:00Z,30.2791,-87.5561,1.191,5.52,1111122 
DISL,ioos:station:DISL:PPTA:1,2012-08-02T06:00:00Z,30.2791,-87.5561,1.197,5.46,1111122 
DISL,ioos:station:DISL:PPTA:1,2012-08-02T06:30:00Z,30.2791,-87.5561,1.2,6.07,1111122 
DISL,ioos:station:DISL:PPTA:1,2012-08-02T07:00:00Z,30.2791,-87.5561,1.18,5.48,1111122 
DISL,ioos:station:DISL:PPTA:1,2012-08-02T07:30:00Z,30.2791,-87.5561,1.176,5.94,1111122 
DISL,ioos:station:DISL:PPTA:1,2012-08-02T08:00:00Z,30.2791,-87.5561,1.191,5.68,1111122 
DISL,ioos:station:DISL:PPTA:1,2012-08-02T08:30:00Z,30.2791,-87.5561,1.195,5.26,1111122 
DISL,ioos:station:DISL:PPTA:1,2012-08-02T09:00:00Z,30.2791,-87.5561,1.226,4.91,1111122 
DISL,ioos:station:DISL:PPTA:1,2012-08-02T09:30:00Z,30.2791,-87.5561,1.252,4.87,1111122 
DISL,ioos:station:DISL:PPTA:1,2012-08-02T10:00:00Z,30.2791,-87.5561,1.259,4.61,1111122 
DISL,ioos:station:DISL:PPTA:1,2012-08-02T10:30:00Z,30.2791,-87.5561,1.278,4.5,1111122 
DISL,ioos:station:DISL:PPTA:1,2012-08-02T11:00:00Z,30.2791,-87.5561,1.312,4.32,1111122 
DISL,ioos:station:DISL:PPTA:1,2012-08-02T11:30:00Z,30.2791,-87.5561,1.326,4.24,1111122 
DISL,ioos:station:DISL:PPTA:1,2012-08-02T12:00:00Z,30.2791,-87.5561,1.358,4.41,1111122 
DISL,ioos:station:DISL:PPTA:1,2012-08-02T12:30:00Z,30.2791,-87.5561,1.382,4.47,1111122 
DISL,ioos:station:DISL:PPTA:1,2012-08-02T13:00:00Z,30.2791,-87.5561,1.396,4.44,1111122 
DISL,ioos:station:DISL:PPTA:1,2012-08-02T13:30:00Z,30.2791,-87.5561,1.402,4.45,1111122 
DISL,ioos:station:DISL:PPTA:1,2012-08-02T14:00:00Z,30.2791,-87.5561,1.419,4.41,1111122 
DISL,ioos:station:DISL:PPTA:1,2012-08-02T14:30:00Z,30.2791,-87.5561,1.423,4.59,1111122 
DISL,ioos:station:DISL:PPTA:1,2012-08-02T15:00:00Z,30.2791,-87.5561,1.425,4.97,1111122 
DISL,ioos:station:DISL:PPTA:1,2012-08-02T15:30:00Z,30.2791,-87.5561,1.435,5.2,1111122 
DISL,ioos:station:DISL:PPTA:1,2012-08-02T16:00:00Z,30.2791,-87.5561,1.448,5.26,1111122 
DISL,ioos:station:DISL:PPTA:1,2012-08-02T16:30:00Z,30.2791,-87.5561,1.444,5.38,1111122 
DISL,ioos:station:DISL:PPTA:1,2012-08-02T17:00:00Z,30.2791,-87.5561,1.444,5.36,1111122 
DISL,ioos:station:DISL:PPTA:1,2012-08-02T17:30:00Z,30.2791,-87.5561,1.443,5.75,1111122 
DISL,ioos:station:DISL:PPTA:1,2012-08-02T18:00:00Z,30.2791,-87.5561,1.41,5.62,1111122 
DISL,ioos:station:DISL:PPTA:1,2012-08-02T18:30:00Z,30.2791,-87.5561,1.407,5.48,1111122 
DISL,ioos:station:DISL:PPTA:1,2012-08-02T19:00:00Z,30.2791,-87.5561,1.393,5.43,1111122 
DISL,ioos:station:DISL:PPTA:1,2012-08-02T19:30:00Z,30.2791,-87.5561,1.403,6.0,1111122 
DISL,ioos:station:DISL:PPTA:1,2012-08-02T20:00:00Z,30.2791,-87.5561,1.375,6.01,1111122 
DISL,ioos:station:DISL:PPTA:1,2012-08-02T20:30:00Z,30.2791,-87.5561,1.309,6.09,1111122 
DISL,ioos:station:DISL:PPTA:1,2012-08-02T21:00:00Z,30.2791,-87.5561,1.311,5.98,1111122 
DISL,ioos:station:DISL:PPTA:1,2012-08-02T21:30:00Z,30.2791,-87.5561,1.268,5.66,1111122 
DISL,ioos:station:DISL:PPTA:1,2012-08-02T22:00:00Z,30.2791,-87.5561,1.29,6.04,1111122 
DISL,ioos:station:DISL:PPTA:1,2012-08-02T22:30:00Z,30.2791,-87.5561,1.265,6.12,1111122 
DISL,ioos:station:DISL:PPTA:1,2012-08-02T23:00:00Z,30.2791,-87.5561,1.265,5.98,1111122 
DISL,ioos:station:DISL:PPTA:1,2012-08-02T23:30:00Z,30.2791,-87.5561,1.23,6.1,1111122 
DISL,ioos:station:DISL:PPTA:1,2012-08-03T00:00:00Z,30.2791,-87.5561,1.22,5.85,1111122 
DISL,ioos:station:DISL:PPTA:1,2012-08-03T00:30:00Z,30.2791,-87.5561,1.22,5.81,1111122 
DISL,ioos:station:DISL:PPTA:1,2012-08-03T01:00:00Z,30.2791,-87.5561,1.225,5.73,1111122 
DISL,ioos:station:DISL:PPTA:1,2012-08-03T01:30:00Z,30.2791,-87.5561,1.241,5.63,1111122 
DISL,ioos:station:DISL:PPTA:1,2012-08-03T02:00:00Z,30.2791,-87.5561,1.243,5.54,1111122 
DISL,ioos:station:DISL:PPTA:1,2012-08-03T02:30:00Z,30.2791,-87.5561,1.214,5.9,1111122 
DISL,ioos:station:DISL:PPTA:1,2012-08-03T03:00:00Z,30.2791,-87.5561,1.208,5.7,1111122 
DISL,ioos:station:DISL:PPTA:1,2012-08-03T03:30:00Z,30.2791,-87.5561,1.213,5.61,1111122 
DISL,ioos:station:DISL:PPTA:1,2012-08-03T04:00:00Z,30.2791,-87.5561,1.213,5.59,1111122 
DISL,ioos:station:DISL:PPTA:1,2012-08-03T04:30:00Z,30.2791,-87.5561,1.234,5.63,1111122 
DISL,ioos:station:DISL:PPTA:1,2012-08-03T05:00:00Z,30.2791,-87.5561,1.224,5.08,1111122 
DISL,ioos:station:DISL:PPTA:1,2012-08-03T05:30:00Z,30.2791,-87.5561,1.232,4.87,1111122 
DISL,ioos:station:DISL:PPTA:1,2012-08-03T06:00:00Z,30.2791,-87.5561,1.234,5.06,1111122 
DISL,ioos:station:DISL:PPTA:1,2012-08-03T06:30:00Z,30.2791,-87.5561,1.218,4.52,1111122 
DISL,ioos:station:DISL:PPTA:1,2012-08-03T07:00:00Z,30.2791,-87.5561,1.238,4.75,1111122 
DISL,ioos:station:DISL:PPTA:1,2012-08-03T07:30:00Z,30.2791,-87.5561,1.225,4.49,1111122 
DISL,ioos:station:DISL:PPTA:1,2012-08-03T08:00:00Z,30.2791,-87.5561,1.227,4.2,1111122 
DISL,ioos:station:DISL:PPTA:1,2012-08-03T08:30:00Z,30.2791,-87.5561,1.221,4.08,1111122 
DISL,ioos:station:DISL:PPTA:1,2012-08-03T09:00:00Z,30.2791,-87.5561,1.24,3.99,1111122 
DISL,ioos:station:DISL:PPTA:1,2012-08-03T09:30:00Z,30.2791,-87.5561,1.25,4.11,1111122 
DISL,ioos:station:DISL:PPTA:1,2012-08-03T10:00:00Z,30.2791,-87.5561,1.257,4.05,1111122 
DISL,ioos:station:DISL:PPTA:1,2012-08-03T10:30:00Z,30.2791,-87.5561,1.286,3.87,1111122 
DISL,ioos:station:DISL:PPTA:1,2012-08-03T11:00:00Z,30.2791,-87.5561,1.289,3.77,1111122 
DISL,ioos:station:DISL:PPTA:1,2012-08-03T11:30:00Z,30.2791,-87.5561,1.291,4.15,1111122 
DISL,ioos:station:DISL:PPTA:1,2012-08-03T12:00:00Z,30.2791,-87.5561,1.333,4.29,1111122 
DISL,ioos:station:DISL:PPTA:1,2012-08-03T12:30:00Z,30.2791,-87.5561,1.34,3.99,1111122 
DISL,ioos:station:DISL:PPTA:1,2012-08-03T13:00:00Z,30.2791,-87.5561,1.361,4.28,1111122 
DISL,ioos:station:DISL:PPTA:1,2012-08-03T13:30:00Z,30.2791,-87.5561,1.397,4.18,1111122 
DISL,ioos:station:DISL:PPTA:1,2012-08-03T14:00:00Z,30.2791,-87.5561,1.389,4.11,1111122 
DISL,ioos:station:DISL:PPTA:1,2012-08-03T14:30:00Z,30.2791,-87.5561,1.395,4.41,1111122 
DISL,ioos:station:DISL:PPTA:1,2012-08-03T15:00:00Z,30.2791,-87.5561,1.397,4.65,1111122 
DISL,ioos:station:DISL:PPTA:1,2012-08-03T15:30:00Z,30.2791,-87.5561,1.406,4.67,1111122 
DISL,ioos:station:DISL:PPTA:1,2012-08-03T16:00:00Z,30.2791,-87.5561,1.424,4.99,1111122 
DISL,ioos:station:DISL:PPTA:1,2012-08-03T16:30:00Z,30.2791,-87.5561,1.422,5.01,1111122 
DISL,ioos:station:DISL:PPTA:1,2012-08-03T17:00:00Z,30.2791,-87.5561,1.441,5.04,1111122 
DISL,ioos:station:DISL:PPTA:1,2012-08-03T17:30:00Z,30.2791,-87.5561,1.437,5.53,1111122 
DISL,ioos:station:DISL:PPTA:1,2012-08-03T18:00:00Z,30.2791,-87.5561,1.429,5.39,1111122 
DISL,ioos:station:DISL:PPTA:1,2012-08-03T18:30:00Z,30.2791,-87.5561,1.431,5.51,1111122 
DISL,ioos:station:DISL:PPTA:1,2012-08-03T19:00:00Z,30.2791,-87.5561,1.38,5.4,1111122 
DISL,ioos:station:DISL:PPTA:1,2012-08-03T19:30:00Z,30.2791,-87.5561,1.365,5.74,1111122 
DISL,ioos:station:DISL:PPTA:1,2012-08-03T20:00:00Z,30.2791,-87.5561,1.374,6.01,1111122 
DISL,ioos:station:DISL:PPTA:1,2012-08-03T20:30:00Z,30.2791,-87.5561,1.316,6.03,1111122 
DISL,ioos:station:DISL:PPTA:1,2012-08-03T21:00:00Z,30.2791,-87.5561,1.336,6.06,1111122 
DISL,ioos:station:DISL:PPTA:1,2012-08-03T21:30:00Z,30.2791,-87.5561,1.323,6.07,1111122 
DISL,ioos:station:DISL:PPTA:1,2012-08-03T22:00:00Z,30.2791,-87.5561,1.348,6.21,1111122 
DISL,ioos:station:DISL:PPTA:1,2012-08-03T22:30:00Z,30.2791,-87.5561,1.329,6.32,1111122 
DISL,ioos:station:DISL:PPTA:1,2012-08-03T23:00:00Z,30.2791,-87.5561,1.311,6.67,1111122 
DISL,ioos:station:DISL:PPTA:1,2012-08-03T23:30:00Z,30.2791,-87.5561,1.309,6.58,1111122 
DISL,ioos:station:DISL:PPTA:1,2012-08-04T00:00:00Z,30.2791,-87.5561,1.309,6.44,1111122 
DISL,ioos:station:DISL:PPTA:1,2012-08-04T00:30:00Z,30.2791,-87.5561,1.281,6.2,1111122 
DISL,ioos:station:DISL:PPTA:1,2012-08-04T01:00:00Z,30.2791,-87.5561,1.266,6.24,1111122 
DISL,ioos:station:DISL:PPTA:1,2012-08-04T01:30:00Z,30.2791,-87.5561,1.276,6.11,1111122 
DISL,ioos:station:DISL:PPTA:1,2012-08-04T02:00:00Z,30.2791,-87.5561,1.294,6.02,1111122 
DISL,ioos:station:DISL:PPTA:1,2012-08-04T02:30:00Z,30.2791,-87.5561,1.286,5.84,1111122 
DISL,ioos:station:DISL:PPTA:1,2012-08-04T03:00:00Z,30.2791,-87.5561,1.276,5.82,1111122 
DISL,ioos:station:DISL:PPTA:1,2012-08-04T03:30:00Z,30.2791,-87.5561,1.273,5.82,1111122 
DISL,ioos:station:DISL:PPTA:1,2012-08-04T04:00:00Z,30.2791,-87.5561,1.279,5.47,1111122 
DISL,ioos:station:DISL:PPTA:1,2012-08-04T04:30:00Z,30.2791,-87.5561,1.286,5.46,1111122 
DISL,ioos:station:DISL:PPTA:1,2012-08-04T05:00:00Z,30.2791,-87.5561,1.282,5.34,1111122 
DISL,ioos:station:DISL:PPTA:1,2012-08-04T05:30:00Z,30.2791,-87.5561,1.281,5.18,1111122 
DISL,ioos:station:DISL:PPTA:1,2012-08-04T06:00:00Z,30.2791,-87.5561,1.304,5.19,1111122 
DISL,ioos:station:DISL:PPTA:1,2012-08-04T06:30:00Z,30.2791,-87.5561,1.272,4.94,1111122 
DISL,ioos:station:DISL:PPTA:1,2012-08-04T07:00:00Z,30.2791,-87.5561,1.297,5.1,1111122 
DISL,ioos:station:DISL:PPTA:1,2012-08-04T07:30:00Z,30.2791,-87.5561,1.282,5.13,1111122 
DISL,ioos:station:DISL:PPTA:1,2012-08-04T08:00:00Z,30.2791,-87.5561,1.278,4.37,1111122 
DISL,ioos:station:DISL:PPTA:1,2012-08-04T08:30:00Z,30.2791,-87.5561,1.261,4.81,1111122 
DISL,ioos:station:DISL:PPTA:1,2012-08-04T09:00:00Z,30.2791,-87.5561,1.288,4.72,1111122 
DISL,ioos:station:DISL:PPTA:1,2012-08-04T09:30:00Z,30.2791,-87.5561,1.277,4.77,1111122 
DISL,ioos:station:DISL:PPTA:1,2012-08-04T10:00:00Z,30.2791,-87.5561,1.263,4.59,1111122 
DISL,ioos:station:DISL:PPTA:1,2012-08-04T10:30:00Z,30.2791,-87.5561,1.287,4.79,1111122 
DISL,ioos:station:DISL:PPTA:1,2012-08-04T11:00:00Z,30.2791,-87.5561,1.3,4.51,1111122 
DISL,ioos:station:DISL:PPTA:1,2012-08-04T11:30:00Z,30.2791,-87.5561,1.315,4.62,1111122 
DISL,ioos:station:DISL:PPTA:1,2012-08-04T12:00:00Z,30.2791,-87.5561,1.327,4.68,1111122 
DISL,ioos:station:DISL:PPTA:1,2012-08-04T12:30:00Z,30.2791,-87.5561,1.349,4.67,1111122 
DISL,ioos:station:DISL:PPTA:1,2012-08-04T13:00:00Z,30.2791,-87.5561,1.36,4.78,1111122 
DISL,ioos:station:DISL:PPTA:1,2012-08-04T13:30:00Z,30.2791,-87.5561,1.357,4.86,1111122 
DISL,ioos:station:DISL:PPTA:1,2012-08-04T14:00:00Z,30.2791,-87.5561,1.356,5.29,1111122 
DISL,ioos:station:DISL:PPTA:1,2012-08-04T14:30:00Z,30.2791,-87.5561,1.373,5.33,1111122 
DISL,ioos:station:DISL:PPTA:1,2012-08-04T15:00:00Z,30.2791,-87.5561,1.395,5.45,1111122 
DISL,ioos:station:DISL:PPTA:1,2012-08-04T15:30:00Z,30.2791,-87.5561,1.386,5.37,1111122 
DISL,ioos:station:DISL:PPTA:1,2012-08-04T16:00:00Z,30.2791,-87.5561,1.398,5.59,1111122 
DISL,ioos:station:DISL:PPTA:1,2012-08-04T16:30:00Z,30.2791,-87.5561,1.412,5.63,1111122 
DISL,ioos:station:DISL:PPTA:1,2012-08-04T17:00:00Z,30.2791,-87.5561,1.407,5.86,1111122 
DISL,ioos:station:DISL:PPTA:1,2012-08-04T17:30:00Z,30.2791,-87.5561,1.429,6.24,1111122 
DISL,ioos:station:DISL:PPTA:1,2012-08-04T18:00:00Z,30.2791,-87.5561,1.435,6.13,1111122 
DISL,ioos:station:DISL:PPTA:1,2012-08-04T18:30:00Z,30.2791,-87.5561,1.427,5.92,1111122 
DISL,ioos:station:DISL:PPTA:1,2012-08-04T19:00:00Z,30.2791,-87.5561,1.439,6.38,1111122 
DISL,ioos:station:DISL:PPTA:1,2012-08-04T19:30:00Z,30.2791,-87.5561,1.392,6.35,1111122 
DISL,ioos:station:DISL:PPTA:1,2012-08-04T20:00:00Z,30.2791,-87.5561,1.402,6.35,1111122 
DISL,ioos:station:DISL:PPTA:1,2012-08-04T20:30:00Z,30.2791,-87.5561,1.367,6.52,1111122 
DISL,ioos:station:DISL:PPTA:1,2012-08-04T21:00:00Z,30.2791,-87.5561,1.351,6.76,1111122 
DISL,ioos:station:DISL:PPTA:1,2012-08-04T21:30:00Z,30.2791,-87.5561,1.369,6.83,1111122 
DISL,ioos:station:DISL:PPTA:1,2012-08-04T22:00:00Z,30.2791,-87.5561,1.35,6.57,1111122 
DISL,ioos:station:DISL:PPTA:1,2012-08-04T22:30:00Z,30.2791,-87.5561,1.356,7.28,1111122 
DISL,ioos:station:DISL:PPTA:1,2012-08-04T23:00:00Z,30.2791,-87.5561,1.352,6.98,1111122 
DISL,ioos:station:DISL:PPTA:1,2012-08-04T23:30:00Z,30.2791,-87.5561,1.34,6.98,1111122 
DISL,ioos:station:DISL:PPTA:1,2012-08-05T00:00:00Z,30.2791,-87.5561,1.334,6.85,1111122 
DISL,ioos:station:DISL:PPTA:1,2012-08-05T00:30:00Z,30.2791,-87.5561,1.326,6.69,1111122 
DISL,ioos:station:DISL:PPTA:1,2012-08-05T01:00:00Z,30.2791,-87.5561,1.317,6.87,1111122 
DISL,ioos:station:DISL:PPTA:1,2012-08-05T01:30:00Z,30.2791,-87.5561,1.325,6.77,1111122 
DISL,ioos:station:DISL:PPTA:1,2012-08-05T02:00:00Z,30.2791,-87.5561,1.341,6.63,1111122 
DISL,ioos:station:DISL:PPTA:1,2012-08-05T02:30:00Z,30.2791,-87.5561,1.337,6.49,1111122 
DISL,ioos:station:DISL:PPTA:1,2012-08-05T03:00:00Z,30.2791,-87.5561,1.33,6.37,1111122 
DISL,ioos:station:DISL:PPTA:1,2012-08-05T03:30:00Z,30.2791,-87.5561,1.327,6.17,1111122 
DISL,ioos:station:DISL:PPTA:1,2012-08-05T04:00:00Z,30.2791,-87.5561,1.323,6.05,1111122 
DISL,ioos:station:DISL:PPTA:1,2012-08-05T04:30:00Z,30.2791,-87.5561,1.309,5.88,1111122 
DISL,ioos:station:DISL:PPTA:1,2012-08-05T05:00:00Z,30.2791,-87.5561,1.313,5.61,1111122 
DISL,ioos:station:DISL:PPTA:1,2012-08-05T05:30:00Z,30.2791,-87.5561,1.301,5.5,1111122 
DISL,ioos:station:DISL:PPTA:1,2012-08-05T06:00:00Z,30.2791,-87.5561,1.313,5.54,1111122 
DISL,ioos:station:DISL:PPTA:1,2012-08-05T06:30:00Z,30.2791,-87.5561,1.306,5.64,1111122 
DISL,ioos:station:DISL:PPTA:1,2012-08-05T07:00:00Z,30.2791,-87.5561,1.333,5.45,1111122 
DISL,ioos:station:DISL:PPTA:1,2012-08-05T07:30:00Z,30.2791,-87.5561,1.322,5.38,1111122 
DISL,ioos:station:DISL:PPTA:1,2012-08-05T08:00:00Z,30.2791,-87.5561,1.312,5.27,1111122 
DISL,ioos:station:DISL:PPTA:1,2012-08-05T08:30:00Z,30.2791,-87.5561,1.319,5.58,1111122 
DISL,ioos:station:DISL:PPTA:1,2012-08-05T09:00:00Z,30.2791,-87.5561,1.279,5.58,1111122 
DISL,ioos:station:DISL:PPTA:1,2012-08-05T09:30:00Z,30.2791,-87.5561,1.282,5.2,1111122 
DISL,ioos:station:DISL:PPTA:1,2012-08-05T10:00:00Z,30.2791,-87.5561,1.275,5.48,1111122 
DISL,ioos:station:DISL:PPTA:1,2012-08-05T10:30:00Z,30.2791,-87.5561,1.279,5.39,1111122 
DISL,ioos:station:DISL:PPTA:1,2012-08-05T11:00:00Z,30.2791,-87.5561,1.267,5.47,1111122 
DISL,ioos:station:DISL:PPTA:1,2012-08-05T11:30:00Z,30.2791,-87.5561,1.284,4.81,1111122 
DISL,ioos:station:DISL:PPTA:1,2012-08-05T12:00:00Z,30.2791,-87.5561,1.304,5.58,1111122 
DISL,ioos:station:DISL:PPTA:1,2012-08-05T12:30:00Z,30.2791,-87.5561,1.334,5.12,1111122 
DISL,ioos:station:DISL:PPTA:1,2012-08-05T13:00:00Z,30.2791,-87.5561,1.331,5.29,1111122 
DISL,ioos:station:DISL:PPTA:1,2012-08-05T13:30:00Z,30.2791,-87.5561,1.327,5.2,1111122 
DISL,ioos:station:DISL:PPTA:1,2012-08-05T14:00:00Z,30.2791,-87.5561,1.337,4.39,1111122 
DISL,ioos:station:DISL:PPTA:1,2012-08-05T14:30:00Z,30.2791,-87.5561,1.324,4.79,1111122 
DISL,ioos:station:DISL:PPTA:1,2012-08-05T15:00:00Z,30.2791,-87.5561,1.329,4.23,1111122 
DISL,ioos:station:DISL:PPTA:1,2012-08-05T15:30:00Z,30.2791,-87.5561,1.323,4.89,1111122 
DISL,ioos:station:DISL:PPTA:1,2012-08-05T16:00:00Z,30.2791,-87.5561,1.332,5.42,1111122 
DISL,ioos:station:DISL:PPTA:1,2012-08-05T16:30:00Z,30.2791,-87.5561,1.322,5.55,1111122 
DISL,ioos:station:DISL:PPTA:1,2012-08-05T17:00:00Z,30.2791,-87.5561,1.335,5.97,1111122 
DISL,ioos:station:DISL:PPTA:1,2012-08-05T17:30:00Z,30.2791,-87.5561,1.322,5.84,1111122 
DISL,ioos:station:DISL:PPTA:1,2012-08-05T18:00:00Z,30.2791,-87.5561,1.329,6.35,1111122 
DISL,ioos:station:DISL:PPTA:1,2012-08-05T18:30:00Z,30.2791,-87.5561,1.343,6.36,1111122 
DISL,ioos:station:DISL:PPTA:1,2012-08-05T19:00:00Z,30.2791,-87.5561,1.328,6.27,1111122 
DISL,ioos:station:DISL:PPTA:1,2012-08-05T19:30:00Z,30.2791,-87.5561,1.334,6.19,1111122 
DISL,ioos:station:DISL:PPTA:1,2012-08-05T20:00:00Z,30.2791,-87.5561,1.315,6.01,1111122 
DISL,ioos:station:DISL:PPTA:1,2012-08-05T20:30:00Z,30.2791,-87.5561,1.322,6.36,1111122 
DISL,ioos:station:DISL:PPTA:1,2012-08-05T21:00:00Z,30.2791,-87.5561,1.315,6.35,1111122 
DISL,ioos:station:DISL:PPTA:1,2012-08-05T21:30:00Z,30.2791,-87.5561,1.313,6.79,1111122 
DISL,ioos:station:DISL:PPTA:1,2012-08-05T22:00:00Z,30.2791,-87.5561,1.282,6.59,1111122 
DISL,ioos:station:DISL:PPTA:1,2012-08-05T22:30:00Z,30.2791,-87.5561,1.281,6.5,1111122 
DISL,ioos:station:DISL:PPTA:1,2012-08-05T23:00:00Z,30.2791,-87.5561,1.28,6.77,1111122 
DISL,ioos:station:DISL:PPTA:1,2012-08-05T23:30:00Z,30.2791,-87.5561,1.319,7.27,1111122 
DISL,ioos:station:DISL:PPTA:1,2012-08-06T00:00:00Z,30.2791,-87.5561,1.28,6.28,1111122 
DISL,ioos:station:DISL:PPTA:1,2012-08-06T00:30:00Z,30.2791,-87.5561,1.302,6.36,1111122 
DISL,ioos:station:DISL:PPTA:1,2012-08-06T01:00:00Z,30.2791,-87.5561,1.312,6.55,1111122 
DISL,ioos:station:DISL:PPTA:1,2012-08-06T01:30:00Z,30.2791,-87.5561,1.295,6.32,1111122 
DISL,ioos:station:DISL:PPTA:1,2012-08-06T02:00:00Z,30.2791,-87.5561,1.328,6.59,1111122 
DISL,ioos:station:DISL:PPTA:1,2012-08-06T02:30:00Z,30.2791,-87.5561,1.335,6.7,1111122 
DISL,ioos:station:DISL:PPTA:1,2012-08-06T03:00:00Z,30.2791,-87.5561,1.351,6.34,1111122 
DISL,ioos:station:DISL:PPTA:1,2012-08-06T03:30:00Z,30.2791,-87.5561,1.318,6.24,1111122 
DISL,ioos:station:DISL:PPTA:1,2012-08-06T04:00:00Z,30.2791,-87.5561,1.295,5.59,1111122 
DISL,ioos:station:DISL:PPTA:1,2012-08-06T04:30:00Z,30.2791,-87.5561,1.306,5.91,1111122 
DISL,ioos:station:DISL:PPTA:1,2012-08-06T05:00:00Z,30.2791,-87.5561,1.298,5.55,1111122 
DISL,ioos:station:DISL:PPTA:1,2012-08-06T05:30:00Z,30.2791,-87.5561,1.302,5.72,1111122 
DISL,ioos:station:DISL:PPTA:1,2012-08-06T06:00:00Z,30.2791,-87.5561,1.317,4.65,1111122 
DISL,ioos:station:DISL:PPTA:1,2012-08-06T06:30:00Z,30.2791,-87.5561,1.305,4.87,1111122 
DISL,ioos:station:DISL:PPTA:1,2012-08-06T07:00:00Z,30.2791,-87.5561,1.307,4.99,1111122 
DISL,ioos:station:DISL:PPTA:1,2012-08-06T07:30:00Z,30.2791,-87.5561,1.308,4.97,1111122 
DISL,ioos:station:DISL:PPTA:1,2012-08-06T08:00:00Z,30.2791,-87.5561,1.311,5.05,1111122 
DISL,ioos:station:DISL:PPTA:1,2012-08-06T08:30:00Z,30.2791,-87.5561,1.313,5.29,1111122 
DISL,ioos:station:DISL:PPTA:1,2012-08-06T09:00:00Z,30.2791,-87.5561,1.297,4.92,1111122 
DISL,ioos:station:DISL:PPTA:1,2012-08-06T09:30:00Z,30.2791,-87.5561,1.278,4.97,1111122 
DISL,ioos:station:DISL:PPTA:1,2012-08-06T10:00:00Z,30.2791,-87.5561,1.291,4.89,1111122 
DISL,ioos:station:DISL:PPTA:1,2012-08-06T10:30:00Z,30.2791,-87.5561,1.279,5.67,1111122 
DISL,ioos:station:DISL:PPTA:1,2012-08-06T11:00:00Z,30.2791,-87.5561,1.284,6.01,1111122 
DISL,ioos:station:DISL:PPTA:1,2012-08-06T11:30:00Z,30.2791,-87.5561,1.312,4.89,1111122 
DISL,ioos:station:DISL:PPTA:1,2012-08-06T12:00:00Z,30.2791,-87.5561,1.28,5.16,1111122 
DISL,ioos:station:DISL:PPTA:1,2012-08-06T12:30:00Z,30.2791,-87.5561,1.311,5.09,1111122 
DISL,ioos:station:DISL:PPTA:1,2012-08-06T13:00:00Z,30.2791,-87.5561,1.303,6.09,1111122 
DISL,ioos:station:DISL:PPTA:1,2012-08-06T13:30:00Z,30.2791,-87.5561,1.303,5.17,1111122 
DISL,ioos:station:DISL:PPTA:1,2012-08-06T14:00:00Z,30.2791,-87.5561,1.31,5.81,1111122 
DISL,ioos:station:DISL:PPTA:1,2012-08-06T14:30:00Z,30.2791,-87.5561,1.295,4.8,1111122 
DISL,ioos:station:DISL:PPTA:1,2012-08-06T15:00:00Z,30.2791,-87.5561,1.321,5.55,1111122 
DISL,ioos:station:DISL:PPTA:1,2012-08-06T15:30:00Z,30.2791,-87.5561,1.309,5.9,1111122 